Regional Weather Roundup
Issued by NWS

Home | Current Version | Previous Version | Graphics & Text | Print | Product List | Glossary On
Versions: 1 2 3 4 5 6 7 8 9 10 11 12 13 14 15 16 17 18 19 20 21 22 23 24 25 26 27 28 29 30 31 32 33 34 35 36 37 38 39 40 41 42 43 44 45 46 47 48 49 50
000
ASUS43 KMPX 200110
RWRMN
WEATHER ROUNDUP FOR MINNESOTA
NATIONAL WEATHER SERVICE TWIN CITIES/CHANHASSEN MN
700 PM CST FRI DEC 19 2014


NOTE: "FAIR" INDICATES FEW OR NO CLOUDS BELOW 12,000 FEET WITH NO
SIGNIFICANT WEATHER AND/OR OBSTRUCTIONS TO VISIBILITY. N/A MEANS
CURRENT SKY AND/OR WEATHER CONDITIONS ARE NOT AVAILABLE.

MNZ060>063-068>070-200200-
   Twin Cities Metro

CITY           SKY/WX    TMP DP  RH WIND       PRES   REMARKS
TWIN CITIES    CLOUDY    29  24  82 SE9       30.20S WCI  20
ST PAUL        CLOUDY    29  24  82 SE12      30.21S WCI  19
CRYSTAL        CLOUDY    30  25  81 SE8       30.18S HAZE    WCI  22
BLAINE         CLOUDY    30  27  86 SE7       30.19S WCI  23
LAKEVILLE      MOCLDY    28  25  86 SE7       30.18F WCI  21
EDEN PRAIRIE   CLOUDY    30  25  81 SE9       30.17F WCI  22
SOUTH ST PAUL  CLOUDY    30  25  81 SE6       30.20S WCI  24
LAKE ELMO      CLOUDY    30  27  86 SE7       30.21S WCI  23
$$
MNZ001>005-007-008-013>017-022>024-027-028-200200-
   Northwest Minnesota

CITY           SKY/WX    TMP DP  RH WIND       PRES   REMARKS
BEMIDJI        LGT SNOW  24  24  99 SE9       30.05S WCI  14
HALLOCK        CLOUDY    28  27  93 SE7       30.02F FOG     WCI  21
ROSEAU         CLOUDY    27  21  80 SE8       30.05F FOG     WCI  18
WARROAD        CLOUDY    25  21  86 SE7       30.06F FOG     WCI  17
THIEF RVR FALL CLOUDY    27  27 100 SE8       30.04R WCI  18
CROOKSTON      MOCLDY    28  28 100 S10       30.03F FOG     WCI  19
FOSSTON        CLOUDY    25  25 100 S5        30.04F FOG     WCI  19
DETROIT LAKES  CLOUDY    30  28  93 S13       30.04S FOG     WCI  20
MOORHEAD       CLOUDY    30  30 100 S13       30.05R FOG     WCI  20
PARK RAPIDS    LGT SNOW  26  24  92 SE12      30.05S FOG     WCI  16
MAHNOMEN       CLOUDY    28  26  93 S7        30.03S FOG     WCI  20
$$
MNZ006-009>011-018-025>026-200200-
   North Central Minnesota

CITY           SKY/WX    TMP DP  RH WIND       PRES   REMARKS
BAUDETTE       CLOUDY    24  22  91 S8        30.07S WCI  15
FLAG ISLAND    LGT SNOW  25  23  93 SE14      30.06F WCI  13
INTL FALLS     CLOUDY    24  20  84 SE7       30.10F WCI  16
WASKISH        CLOUDY    25  23  93 CALM      30.08S
BIG FORK       LGT SNOW  25  21  86 SE8       30.10S WCI  16
LONGVILLE      CLOUDY    25  23  93 SE7       30.10S FOG     WCI  17
GRAND RAPIDS   CLOUDY    23  21  93 SE10      30.11S WCI  12
CRANE LAKE     CLOUDY    23  21  93 CALM      30.16S
ORR            CLOUDY    23  19  86 SE7       30.10S WCI  15
COOK           CLOUDY    23  21  93 SE6       30.13S WCI  16
WALKER         CLOUDY    24  23  96 SE7       30.07F FOG     WCI  16
$$
MNZ012-019>021-037-200200-
   Northeast Minnesota

CITY           SKY/WX    TMP DP  RH WIND       PRES   REMARKS
DULUTH         LGT SNOW  25  21  85 SE12      30.16S FOG     WCI  14
ELY            CLOUDY    23  21  93 S5        30.15S WCI  17
HIBBING        CLOUDY    24  21  88 S7        30.13F WCI  16
EVELETH        CLOUDY    25  23  93 SE6       30.15S WCI  18
DULUTH HARBOR  CLOUDY    28  25  86 CALM      30.22S
TWO HARBORS    CLOUDY    28  23  80 SE1       30.17S
SILVER BAY     CLOUDY    27  23  86 CALM      30.18S
GRAND MARAIS     N/A     29  24  82 SW10      30.23S WCI  20
G MARAIS ARPRT CLOUDY    21  18  86 S5        30.16S FOG     WCI  15
$$
MNZ029>031-032-039>041-046>048-054>057-064-200200-
   West Central Minnesota

CITY           SKY/WX    TMP DP  RH WIND       PRES   REMARKS
FERGUS FALLS   CLOUDY    28  28 100 S16       30.08S FOG     WCI  17
WHEATON        MOCLDY    28  27  93 SE10      30.07S WCI  19
MORRIS         CLOUDY    30  28  93 S9        30.06S FOG     WCI  22
ALEXANDRIA     CLOUDY    29  27  92 S17       30.08S FOG     WCI  17
ELBOW LAKE     CLOUDY    29  28  97 S15       30.06S FOG     WCI  18
WADENA         CLOUDY    28  27  93 S5        30.07R FOG     WCI  23
GLENWOOD       CLOUDY    30  28  93 S12       30.09S FOG     WCI  21
APPLETON       CLOUDY    32  30  93 S6        30.08S WCI  26
BENSON         CLOUDY    30  28  93 S13       30.09S FOG     WCI  20
ORTONVILLE     CLOUDY    30  27  86 S10       30.05S WCI  21
MADISON        MOCLDY    34  32  93 S7        30.08R FOG     WCI  28
WILLMAR        CLOUDY    34  28  80 S5        30.12F WCI  30
$$
MNZ033>034-036-042>043-049>051-058-059-200200-
   Central Minnesota

CITY           SKY/WX    TMP DP  RH WIND       PRES   REMARKS
ST CLOUD       CLOUDY    30  25  81 SE10      30.14F HAZE    WCI  21
SAUK CENTRE    CLOUDY    30  28  93 S9        30.10S FOG     WCI  22
PAYNESVILLE    CLOUDY    28  27  96 SE8       30.11F FOG     WCI  20
AITKIN         CLOUDY    28  23  80 S8        30.12S HAZE    WCI  20
PINE RIVER     CLOUDY    25  25 100 SE8       30.13F FOG     WCI  16
BRAINERD       CLOUDY    25  24  96 S8        30.12F FOG     WCI  16
STAPLES        CLOUDY    25  25 100 SE7       30.09F FOG     WCI  17
LONG PRAIRIE   CLOUDY    28  28 100 SE9       30.10S FOG     WCI  20
LITTLE FALLS   CLOUDY    28  27  93 SE7       30.12F FOG     WCI  21
LITCHFIELD     CLOUDY    30  30 100 SE7       30.14S FOG     WCI  23
BUFFALO        CLOUDY    30  26  88 SE6       30.17F FOG     WCI  24
MAPLE LAKE     CLOUDY    31  29  94 SE5       30.16F FOG     WCI  26
$$
MNZ037-044-045-052-053-200200-
   East Central Minnesota

CITY           SKY/WX    TMP DP  RH WIND       PRES   REMARKS
PRINCETON      CLOUDY    28  25  86 SE6       30.17F FOG     WCI  22
MORA           CLOUDY    27  23  86 SE7       30.19F WCI  19
CAMBRIDGE      MOCLDY    28  21  74 SE6       30.17F WCI  22
RUSH CITY      CLOUDY    27  23  87 SE7       30.20S WCI  19
MOOSE LAKE     CLOUDY    27  21  80 SE3       30.16S
HINCKLEY       CLOUDY    28  25  86 CALM      30.18S
CLOQUET        CLOUDY    25  21  86 SE5       30.16F WCI  19
MCGREGOR       CLOUDY    27  23  86 SE7       30.15S WCI  19
$$
MNZ071>073-080-081-089-090-097-098-200200-
   Southwest Minnesota

CITY           SKY/WX    TMP DP  RH WIND       PRES   REMARKS
MONTEVIDEO     CLOUDY    30  30 100 S10       30.10F FOG     WCI  21
GRANITE FALLS  CLOUDY    31  28  90 S14       30.11F WCI  21
CANBY          CLOUDY    31  30  94 S12G18    30.08S WCI  22
MARSHALL       CLOUDY    30  27  86 S16       30.09F WCI  19
REDWOOD FALLS  CLOUDY    33  29  85 S10       30.12F WCI  25
OLIVIA         CLOUDY    34  32  93 S7        30.12F WCI  28
PIPESTONE      CLOUDY    30  28  93 S5        30.06F FOG     WCI  25
WINDOM         CLOUDY    32  28  86 S8        30.11S WCI  25
WORTHINGTON    CLOUDY    30  27  86 S14       30.10F WCI  20
JACKSON        CLOUDY    32  28  86 S14G20    30.13R WCI  22
TRACY          CLOUDY    32  29  90 S12       30.10F WCI  23
SLAYTON        CLOUDY    30  29  97 S7        30.10S FOG     WCI  23
$$
MNZ065>067-074>077-082>085-091>093-200200-
   South Central Minnesota

CITY           SKY/WX    TMP DP  RH WIND       PRES   REMARKS
MANKATO        CLOUDY    30  27  86 S10       30.15F WCI  21
NEW ULM        CLOUDY    30  30 100 S9        30.14S FOG     WCI  22
ST JAMES       CLOUDY    34  30  86 SE10      30.15S FOG     WCI  26
FAIRMONT       CLOUDY    30  25  80 S13       30.14F WCI  20
GLENCOE        CLOUDY    32  30  94 SE7       30.15S FOG     WCI  26
FARIBAULT      CLOUDY    28  27  93 SE7       30.18F WCI  21
OWATONNA       PTCLDY    28  25  86 SE12      30.17F FOG     WCI  18
WASECA         CLOUDY    30  28  93 SE8       30.18F FOG     WCI  23
ALBERT LEA     CLOUDY    28  28 100 S7        30.17F FOG     WCI  21
$$
MNZ078>079-086>088-094>096-200200-
   Southeast Minnesota

CITY           SKY/WX    TMP DP  RH WIND       PRES   REMARKS
ROCHESTER      CLOUDY    27  22  81 S9        30.19F WCI  18
RED WING       CLOUDY    30  23  74 SE7       30.22S WCI  23
STANTON        CLOUDY    31  26  81 S8        30.18F WCI  23
DODGE CENTER   CLOUDY    28  27  93 S10       30.18F FOG     WCI  19
WINONA         CLOUDY    30  23  74 CALM      30.25F
AUSTIN         CLOUDY    28  25  86 S5        30.18F WCI  23
PRESTON        CLOUDY    27  21  80 SE8       30.20F WCI  18
$$
ABBREVIATIONS USED IN REMARKS
   TC - TEMPERATURES IN CELSIUS
  WCI - WIND CHILL INDEX
   HX - HEAT INDEX
  VSB - VISIBILITY
$$



USA.gov is the U.S. government's official web portal to all federal, state and local government web resources and services.